AAL2045 KDFW-KDTW

Flight info

Callsign AAL2045
Flight time N/A
Altitude 37000
Route AKUNA9 MLC ZALDA SLVER WIDAM TTH WWODD LECTR3
Aircraft B738/M-SDE2E3FGHIRWXY/LB1

Departure

Time 2026-05-06 20:55
Airport Dallas Fort Worth International Airport (KDFW)

Arrival

Time N/A
Airport Detroit Metropolitan Wayne County Airport (KDTW)
Time Latitude Longitude Altitude Speed Heading
2026-05-06 20:40 32.90177 -97.03693 586 ft 0 kts 349°
2026-05-06 20:46 32.90166 -97.03691 586 ft 3 kts 349°
2026-05-06 20:46 32.90147 -97.03686 586 ft 3 kts 349°
2026-05-06 20:46 32.90130 -97.03684 586 ft 3 kts 30°
2026-05-06 20:47 32.90121 -97.03695 586 ft 1 kts 77°
2026-05-06 20:47 32.90118 -97.03711 586 ft 3 kts 77°
2026-05-06 20:47 32.90116 -97.03725 586 ft 0 kts 77°
2026-05-06 20:49 32.90125 -97.03675 586 ft 11 kts 77°
2026-05-06 20:50 32.90132 -97.03574 586 ft 13 kts 92°
2026-05-06 20:50 32.90121 -97.03465 586 ft 14 kts 101°
2026-05-06 20:50 32.90099 -97.03345 585 ft 17 kts 126°
2026-05-06 20:50 32.89939 -97.03314 585 ft 30 kts 181°
2026-05-06 20:51 32.89731 -97.03317 585 ft 29 kts 178°
2026-05-06 20:51 32.89532 -97.03308 584 ft 28 kts 179°
2026-05-06 20:51 32.89339 -97.03317 583 ft 29 kts 181°
2026-05-06 20:51 32.89125 -97.03319 582 ft 31 kts 180°
2026-05-06 20:52 32.88901 -97.03320 581 ft 33 kts 180°
2026-05-06 20:52 32.88671 -97.03321 581 ft 33 kts 180°
2026-05-06 20:52 32.88444 -97.03290 580 ft 33 kts 175°
2026-05-06 20:52 32.88265 -97.03290 578 ft 22 kts 180°
2026-05-06 20:53 32.88118 -97.03290 576 ft 22 kts 180°
2026-05-06 20:53 32.88006 -97.03267 577 ft 12 kts 124°
2026-05-06 20:53 32.87977 -97.03157 580 ft 20 kts 90°
2026-05-06 20:53 32.87983 -97.03044 573 ft 12 kts 68°
2026-05-06 20:54 32.88051 -97.03007 573 ft 11 kts
2026-05-06 20:54 32.88244 -97.03006 574 ft 59 kts
2026-05-06 20:54 32.88884 -97.03004 572 ft 122 kts
2026-05-06 20:54 32.89876 -97.03011 748 ft 155 kts 359°
2026-05-06 20:55 32.90962 -97.03007 1359 ft 160 kts
2026-05-06 20:55 32.92085 -97.03003 2024 ft 162 kts
2026-05-06 20:55 32.93231 -97.02983 2570 ft 174 kts
2026-05-06 20:55 32.94535 -97.02952 2785 ft 198 kts
2026-05-06 20:56 32.95986 -97.02913 2955 ft 218 kts
2026-05-06 20:56 32.97556 -97.02870 3278 ft 231 kts
2026-05-06 20:56 32.99181 -97.02818 3764 ft 239 kts
2026-05-06 20:56 33.00889 -97.02755 4239 ft 253 kts 359°
2026-05-06 20:57 33.02668 -97.02727 4986 ft 259 kts 358°
2026-05-06 20:57 33.04489 -97.02647 5739 ft 265 kts 359°
2026-05-06 20:57 33.06356 -97.02567 6496 ft 270 kts 357°
2026-05-06 20:57 33.08252 -97.02313 7207 ft 284 kts 13°
2026-05-06 20:58 33.10122 -97.01352 7804 ft 299 kts 22°
2026-05-06 20:58 33.12020 -97.00279 8569 ft 304 kts 22°
2026-05-06 20:58 33.13952 -96.99194 9309 ft 310 kts 22°
2026-05-06 20:58 33.15930 -96.98112 10068 ft 316 kts 21°
2026-05-06 20:59 33.17972 -96.97012 10551 ft 330 kts 21°
2026-05-06 20:59 33.20138 -96.95845 10754 ft 354 kts 21°
2026-05-06 20:59 33.22460 -96.94594 10942 ft 376 kts 21°
2026-05-06 20:59 33.24879 -96.93285 11381 ft 387 kts 21°
2026-05-06 21:00 33.27315 -96.91962 11975 ft 392 kts 21°
2026-05-06 21:00 33.29852 -96.90583 12635 ft 397 kts 20°
2026-05-06 21:00 33.32351 -96.89227 13261 ft 403 kts 20°
2026-05-06 21:00 33.34928 -96.87828 13888 ft 409 kts 20°
2026-05-06 21:01 33.37537 -96.86412 14484 ft 415 kts 19°
2026-05-06 21:01 33.40193 -96.84970 15082 ft 422 kts 19°
2026-05-06 21:01 33.42884 -96.83508 15677 ft 428 kts 19°
2026-05-06 21:01 33.45621 -96.82011 16193 ft 437 kts 20°
2026-05-06 21:02 33.48355 -96.80364 16890 ft 440 kts 22°
2026-05-06 21:02 33.51045 -96.78634 17814 ft 439 kts 22°
2026-05-06 21:02 33.53751 -96.76861 18280 ft 450 kts 22°
2026-05-06 21:02 33.56538 -96.75039 18588 ft 461 kts 22°
2026-05-06 21:03 33.59367 -96.73195 19102 ft 465 kts 22°
2026-05-06 21:03 33.62221 -96.71342 19709 ft 467 kts 22°
2026-05-06 21:03 33.65081 -96.69493 20306 ft 469 kts 21°
2026-05-06 21:03 33.67971 -96.67630 20851 ft 473 kts 21°
2026-05-06 21:04 33.70883 -96.65756 21366 ft 477 kts 21°
2026-05-06 21:04 33.73819 -96.63866 21869 ft 480 kts 21°
2026-05-06 21:04 33.76772 -96.61964 22348 ft 484 kts 21°
2026-05-06 21:04 33.79755 -96.60041 22865 ft 488 kts 21°
2026-05-06 21:05 33.82758 -96.58102 23329 ft 492 kts 21°
2026-05-06 21:05 33.85783 -96.56147 23785 ft 496 kts 21°
2026-05-06 21:05 33.88835 -96.54173 24159 ft 499 kts 21°
2026-05-06 21:05 33.91906 -96.52184 24530 ft 503 kts 21°
2026-05-06 21:06 33.95003 -96.50176 24892 ft 507 kts 21°
2026-05-06 21:06 33.98123 -96.48152 25245 ft 511 kts 21°
2026-05-06 21:06 34.01265 -96.46112 25583 ft 515 kts 21°
2026-05-06 21:06 34.04425 -96.44059 25925 ft 518 kts 21°
2026-05-06 21:07 34.07609 -96.41965 26247 ft 525 kts 23°
2026-05-06 21:07 34.10743 -96.39629 26526 ft 533 kts 27°
2026-05-06 21:07 34.13827 -96.37108 26861 ft 538 kts 29°
2026-05-06 21:07 34.16883 -96.34514 27194 ft 541 kts 30°
2026-05-06 21:08 34.19957 -96.31893 27571 ft 542 kts 29°
2026-05-06 21:08 34.23047 -96.29284 28000 ft 541 kts 28°
2026-05-06 21:08 34.26145 -96.26701 28450 ft 541 kts 28°
2026-05-06 21:08 34.29255 -96.24137 28883 ft 541 kts 28°
2026-05-06 21:09 34.32375 -96.21580 29366 ft 543 kts 27°
2026-05-06 21:09 34.35470 -96.19050 29784 ft 544 kts 26°
2026-05-06 21:09 34.38603 -96.16487 30207 ft 544 kts 26°
2026-05-06 21:09 34.41736 -96.13919 30595 ft 544 kts 26°
2026-05-06 21:10 34.44870 -96.11343 31002 ft 544 kts 26°
2026-05-06 21:10 34.48002 -96.08765 31335 ft 545 kts 26°
2026-05-06 21:10 34.51143 -96.06180 31668 ft 546 kts 27°
2026-05-06 21:10 34.54287 -96.03586 32026 ft 547 kts 27°
2026-05-06 21:11 34.57430 -96.00988 32433 ft 546 kts 27°
2026-05-06 21:11 34.60570 -95.98391 32874 ft 546 kts 26°
2026-05-06 21:11 34.63718 -95.95788 33151 ft 549 kts 26°
2026-05-06 21:11 34.66881 -95.93172 33454 ft 550 kts 26°
2026-05-06 21:12 34.70044 -95.90550 33830 ft 550 kts 26°
2026-05-06 21:12 34.73197 -95.87932 34199 ft 549 kts 26°
2026-05-06 21:12 34.76354 -95.85310 34530 ft 548 kts 26°
2026-05-06 21:12 34.79495 -95.82699 34862 ft 547 kts 26°
2026-05-06 21:13 34.82642 -95.80082 35178 ft 547 kts 26°
2026-05-06 21:13 34.85631 -95.77159 35499 ft 561 kts 41°
2026-05-06 21:13 34.88087 -95.73415 35731 ft 568 kts 50°
2026-05-06 21:13 34.90373 -95.69470 35960 ft 570 kts 52°
2026-05-06 21:14 34.92608 -95.65492 36269 ft 569 kts 52°
2026-05-06 21:14 34.94838 -95.61510 36567 ft 568 kts 52°
2026-05-06 21:14 34.97082 -95.57550 36837 ft 568 kts 51°
2026-05-06 21:14 34.99352 -95.53600 37057 ft 569 kts 51°
2026-05-06 21:15 35.00872 -95.50982 37055 ft 573 kts 50°
2026-05-06 21:15 35.05546 -95.43003 37061 ft 583 kts 50°
2026-05-06 21:16 35.10300 -95.34891 37061 ft 591 kts 50°
2026-05-06 21:16 35.15073 -95.26699 37090 ft 594 kts 50°
2026-05-06 21:17 35.19741 -95.18657 37028 ft 595 kts 50°